Overview Statistics Trail Chart Weather Telemetry Raw packets
 

This is the latest recevied weather packets stored in our database for station/object KC4GS-13. If no packets are shown the sender has not sent any weather packets the latest 10 day(s).

<< 111 112 113 114 >>
Time Temp. Humidity Pressure Rain* Wind** Luminosity Snow
1787776056 33.89° C 53% 1015.8 hPa 0 mm - 598 W/m² -
1787775751 32.78° C 54% 1016 hPa 0 mm - 604 W/m² -
1787775450 32.22° C 56% 1015.8 hPa 0 mm - 603 W/m² -
1787775149 32.78° C 56% 1016.1 hPa 0 mm - 128 W/m² -
1787774849 32.78° C 56% 1016.1 hPa 0 mm - 659 W/m² -
1787774548 32.78° C 56% 1016.1 hPa 0 mm - 142 W/m² -
1787774247 32.22° C 58% 1016.5 hPa 0 mm - 376 W/m² -
1787773947 32.22° C 57% 1016.5 hPa 0 mm - 99 W/m² -
1787773645 32.22° C 57% 1016.2 hPa 0 mm - 103 W/m² -
1787773342 32.78° C 57% 1016.7 hPa 0 mm - 120 W/m² -
1787773037 33.33° C 55% 1016.6 hPa 0 mm - 130 W/m² -
1787772732 33.89° C 53% 1016.7 hPa 0 mm - 143 W/m² -
1787772430 34.44° C 53% 1016.7 hPa 0 mm - 346 W/m² -
1787772129 34.44° C 54% 1016.8 hPa 0 mm - 649 W/m² -
1787771824 33.89° C 54% 1016.9 hPa 0 mm - 711 W/m² -
1787771523 33.33° C 53% 1016.9 hPa 0 mm - 719 W/m² -
1787771217 33.89° C 54% 1017 hPa 0 mm - 751 W/m² -
1787770913 33.89° C 54% 1017.1 hPa 0 mm - 726 W/m² -
1787770611 33.89° C 54% 1017 hPa 0 mm - 788 W/m² -
1787770306 33.33° C 55% 1017.1 hPa 0 mm - 763 W/m² -

* Rain latest hour (hover to see other rain measurements)
** Current wind speed in m/s (hover to see current wind gust speed)